Weather History for KHSP - April, 2014

Change the Weather History Date:

Thursday, April 24, 2014

  Actual Average Record
Temperature  
Mean Temperature 45 °F -  
Max Temperature 57 °F 57 °F 77 °F (2011)
Min Temperature 33 °F 40 °F 23 °F (2005)
Degree Days  
Heating Degree Days 20    
Moisture  
Dew Point 24 °F    
Average Humidity 47    
Maximum Humidity 81    
Minimum Humidity 21    
Precipitation  
Precipitation 0.00 in - - ()
Sea Level Pressure  
Sea Level Pressure 30.08 in    
Wind  
Wind Speed 8 mph (SW)    
Max Wind Speed 13 mph    
Max Gust Speed 21 mph    
Visibility 10 miles    
Events      
Averages and records for this station are not official NWS values.
T = Trace of Precipitation, MM = Missing Value Source: NWS Daily Summary

Daily Weather History Graph

Daily Weather History Graph

Search for Another Location

Airport or City:

Trip Planner

Search our weather history database for the weather conditions in past years. The results will help you decide how hot, cold, wet, or windy it might be!

Date:

Astronomy

Apr. 24, 2014 Rise Set
Actual Time 6:31 AM EDT 8:03 PM EDT
Civil Twilight 6:04 AM EDT 8:31 PM EDT
Nautical Twilight 5:30 AM EDT 9:04 PM EDT
Astronomical Twilight 4:55 AM EDT 9:40 PM EDT
Moon 3:36 AM EDT (4/24) 3:22 PM EDT (4/24)
Length of Visible Light 14h 27m
Length of Day
13h 31m
Waning Crescent, 24% of the Moon is Illuminated
Apr 24
Waning Crescent
Apr 29
New
May 6
First Quarter
May 14
Full
May 21
Last Quarter

Hourly Weather History & Observations

Time (EDT) Temp. Windchill Dew Point Humidity Pressure Visibility Wind Dir Wind Speed Gust Speed Precip Events Conditions
12:15 AM 37.4 °F 29.8 °F 28.4 °F 70% 30.05 in 10.0 mi NW 11.5 mph 20.7 mph N/A   Clear
12:35 AM 37.4 °F 29.3 °F 28.4 °F 70% 30.05 in 10.0 mi NW 12.7 mph 19.6 mph N/A   Clear
12:55 AM 37.4 °F 32.8 °F 26.6 °F 65% 30.05 in 10.0 mi NW 5.8 mph 16.1 mph N/A   Clear
1:15 AM 37.4 °F 30.8 °F 26.6 °F 65% 30.06 in 10.0 mi WNW 9.2 mph - N/A   Clear
1:35 AM 35.6 °F 30.7 °F 26.6 °F 70% 30.06 in 10.0 mi WNW 5.8 mph - N/A   Clear
1:55 AM 35.6 °F 29.2 °F 26.6 °F 70% 30.06 in 10.0 mi WNW 8.1 mph - N/A   Clear
2:15 AM 35.6 °F 29.2 °F 26.6 °F 70% 30.05 in 10.0 mi NW 8.1 mph - N/A   Clear
2:35 AM 35.6 °F 28.0 °F 26.6 °F 70% 30.04 in 10.0 mi NW 10.4 mph - N/A   Clear
2:55 AM 35.6 °F 29.2 °F 26.6 °F 70% 30.04 in 10.0 mi NW 8.1 mph - N/A   Clear
3:10 AM 33.8 °F 26.4 °F 26.6 °F 75% 30.04 in 10.0 mi NW 9.2 mph - N/A   Clear
3:35 AM 33.8 °F 25.8 °F 26.6 °F 75% 30.04 in 10.0 mi NW 10.4 mph - N/A   Clear
3:55 AM 33.8 °F 25.3 °F 28.4 °F 81% 30.05 in 10.0 mi NW 11.5 mph - N/A   Clear
4:15 AM 33.8 °F 24.8 °F 28.4 °F 81% 30.05 in 10.0 mi NW 12.7 mph - N/A   Clear
4:35 AM 33.8 °F 25.8 °F 28.4 °F 81% 30.06 in 10.0 mi NW 10.4 mph - N/A   Clear
4:55 AM 33.8 °F 25.3 °F 28.4 °F 81% 30.07 in 10.0 mi NW 11.5 mph - N/A   Clear
5:15 AM 33.8 °F 25.8 °F 28.4 °F 81% 30.07 in 10.0 mi WNW 10.4 mph - N/A   Clear
5:35 AM 33.8 °F 27.0 °F 28.4 °F 81% 30.08 in 10.0 mi WNW 8.1 mph - N/A   Clear
5:55 AM 33.8 °F 27.0 °F 28.4 °F 81% 30.08 in 10.0 mi WNW 8.1 mph - N/A   Clear
6:15 AM 33.8 °F 26.4 °F 26.6 °F 75% 30.08 in 10.0 mi NW 9.2 mph - N/A   Scattered Clouds
6:35 AM 33.8 °F 27.7 °F 26.6 °F 75% 30.08 in 10.0 mi NW 6.9 mph - N/A   Scattered Clouds
6:55 AM 33.8 °F 28.6 °F 26.6 °F 75% 30.09 in 10.0 mi WNW 5.8 mph - N/A   Overcast
7:15 AM 33.8 °F 28.6 °F 24.8 °F 70% 30.10 in 10.0 mi WNW 5.8 mph - N/A   Mostly Cloudy
7:35 AM 33.8 °F 28.6 °F 23.0 °F 65% 30.11 in 10.0 mi WNW 5.8 mph - N/A   Mostly Cloudy
7:55 AM 35.6 °F 28.6 °F 21.2 °F 56% 30.11 in 10.0 mi WNW 9.2 mph - N/A   Overcast
8:15 AM 35.6 °F 29.2 °F 19.4 °F 52% 30.12 in 10.0 mi WNW 8.1 mph - N/A   Overcast
8:35 AM 35.6 °F 29.9 °F 19.4 °F 52% 30.13 in 10.0 mi WNW 6.9 mph - N/A   Mostly Cloudy
8:55 AM 37.4 °F 33.8 °F 17.6 °F 45% 30.13 in 10.0 mi NW 4.6 mph - N/A   Mostly Cloudy
9:15 AM 39.2 °F 37.0 °F 12.2 °F 33% 30.13 in 10.0 mi North 3.5 mph - N/A   Mostly Cloudy
9:35 AM 39.2 °F - 14.0 °F 36% 30.14 in 10.0 mi Calm Calm - N/A   Mostly Cloudy
9:55 AM 42.8 °F - 19.4 °F 39% 30.14 in 10.0 mi Calm Calm - N/A   Overcast
10:15 AM 42.8 °F - 21.2 °F 42% 30.15 in 10.0 mi Calm Calm - N/A   Mostly Cloudy
10:35 AM 44.6 °F 43.1 °F 24.8 °F 46% 30.14 in 10.0 mi SE 3.5 mph - N/A   Overcast
10:55 AM 44.6 °F - 21.2 °F 39% 30.14 in 10.0 mi Calm Calm - N/A   Overcast
11:15 AM 44.6 °F 43.1 °F 21.2 °F 39% 30.15 in 10.0 mi South 3.5 mph - N/A   Overcast
11:35 AM 44.6 °F - 17.6 °F 34% 30.15 in 10.0 mi Calm Calm - N/A   Overcast
11:55 AM 46.4 °F 45.2 °F 17.6 °F 32% 30.15 in 10.0 mi SE 3.5 mph - N/A   Overcast
12:15 PM 46.4 °F - 17.6 °F 32% 30.14 in 10.0 mi Calm Calm - N/A   Overcast
12:35 PM 48.2 °F - 21.2 °F 34% 30.13 in 10.0 mi SSE 5.8 mph - N/A   Overcast
12:55 PM 48.2 °F - 23.0 °F 37% 30.13 in 10.0 mi Calm Calm - N/A   Overcast
1:15 PM 51.8 °F - 21.2 °F 30% 30.12 in 10.0 mi SE 5.8 mph - N/A   Overcast
1:35 PM 53.6 °F - 21.2 °F 28% 30.11 in 10.0 mi South 4.6 mph - N/A   Scattered Clouds
1:55 PM 53.6 °F - 21.2 °F 28% 30.10 in 10.0 mi South 3.5 mph - N/A   Clear
2:15 PM 55.4 °F - 19.4 °F 25% 30.10 in 10.0 mi SW 5.8 mph - N/A   Clear
2:35 PM 57.2 °F - 17.6 °F 21% 30.10 in 10.0 mi SW 6.9 mph - N/A   Clear
2:55 PM 55.4 °F - 15.8 °F 21% 30.09 in 10.0 mi SE 4.6 mph - N/A   Clear
3:15 PM 57.2 °F - 17.6 °F 21% 30.09 in 10.0 mi SSW 3.5 mph - N/A   Clear
3:35 PM 57.2 °F - 19.4 °F 23% 30.08 in 10.0 mi SE 5.8 mph - N/A   Clear
3:55 PM 57.2 °F - 19.4 °F 23% 30.07 in 10.0 mi SSW 4.6 mph - N/A   Clear
4:15 PM 57.2 °F - 17.6 °F 21% 30.07 in 10.0 mi SSW 4.6 mph - N/A   Clear
4:35 PM 57.2 °F - 17.6 °F 21% 30.06 in 10.0 mi Calm Calm - N/A   Clear
4:55 PM 57.2 °F - 19.4 °F 23% 30.07 in 10.0 mi Calm Calm - N/A   Clear
5:15 PM 57.2 °F - 21.2 °F 25% 30.06 in 10.0 mi SSE 6.9 mph - N/A   Clear
5:35 PM 57.2 °F - 21.2 °F 25% 30.06 in 10.0 mi South 8.1 mph - N/A   Clear
5:55 PM 57.2 °F - 21.2 °F 25% 30.06 in 10.0 mi SE 6.9 mph - N/A   Clear
6:15 PM 57.2 °F - 21.2 °F 25% 30.06 in 10.0 mi South 8.1 mph - N/A   Clear
6:35 PM 57.2 °F - 21.2 °F 25% 30.06 in 10.0 mi SSE 8.1 mph - N/A   Clear
6:55 PM 55.4 °F - 21.2 °F 26% 30.06 in 10.0 mi SSE 6.9 mph - N/A   Clear
7:15 PM 53.6 °F - 21.2 °F 28% 30.06 in 10.0 mi South 6.9 mph - N/A   Clear
7:35 PM 53.6 °F - 23.0 °F 30% 30.06 in 10.0 mi South 5.8 mph - N/A   Clear
7:55 PM 53.6 °F - 23.0 °F 30% 30.07 in 10.0 mi South 8.1 mph - N/A   Clear
8:15 PM 51.8 °F - 24.8 °F 35% 30.07 in 10.0 mi South 8.1 mph - N/A   Clear
8:35 PM 53.6 °F - 26.6 °F 35% 30.08 in 10.0 mi South 9.2 mph - N/A   Clear
8:55 PM 51.8 °F - 26.6 °F 38% 30.07 in 10.0 mi South 8.1 mph - N/A   Clear
9:15 PM 51.8 °F - 26.6 °F 38% 30.07 in 10.0 mi South 6.9 mph - N/A   Clear
9:35 PM 51.8 °F - 28.4 °F 41% 30.06 in 10.0 mi South 8.1 mph - N/A   Clear
9:55 PM 51.8 °F - 28.4 °F 41% 30.06 in 10.0 mi South 8.1 mph - N/A   Clear
10:15 PM 51.8 °F - 28.4 °F 41% 30.06 in 10.0 mi South 8.1 mph - N/A   Clear
10:30 PM 51.8 °F - 30.2 °F 44% 30.06 in 10.0 mi South 8.1 mph - N/A   Clear
10:55 PM 51.8 °F - 30.2 °F 44% 30.06 in 10.0 mi South 10.4 mph - N/A   Clear
11:15 PM 51.8 °F - 30.2 °F 44% 30.06 in 10.0 mi South 11.5 mph - N/A   Clear
11:35 PM 51.8 °F - 30.2 °F 44% 30.06 in 10.0 mi South 9.2 mph - N/A   Clear
11:55 PM 51.8 °F - 32.0 °F 47% 30.06 in 10.0 mi South 8.1 mph - N/A   Clear